EW1558 Weather Reports


Display with metric or nautical units.
time (UTC)temp
F
wind
direction
speed
MPH
gust
MPH
rain 1hr
in
rain 24hr
in
rain mn
in
humidity
%
barometer
mb
20260904093040 74 187 0.0 0.0 0.00 0.13 0.00 98 1009.8
20260904091536 74 187 0.0 0.0 0.00 0.13 0.00 98 1009.7
20260904090032 74 187 0.0 0.0 0.00 0.13 0.00 99 1009.7
20260904084534 74 187 0.0 0.0 0.00 0.13 0.00 99 1009.4
20260904083029 73 187 0.0 0.0 0.00 0.13 0.00 99 1009.7
20260904081527 72 68 0.0 0.0 0.00 0.13 0.00 99 1010.0
20260904080026 72 67 0.0 0.0 0.00 0.13 0.00 98 1010.5
20260904074525 73 67 0.0 0.0 0.00 0.13 0.00 99 1010.4
20260904073025 73 67 0.0 0.0 0.00 0.13 0.00 99 1010.2
20260904071524 72 67 0.0 1.0 0.00 0.13 0.00 99 1010.0
20260904070023 71 67 0.0 0.0 0.00 0.13 0.00 99 1010.3
20260904064524 71 67 0.0 0.0 0.00 0.13 0.00 98 1010.1
20260904063026 72 67 0.0 0.0 0.00 0.13 0.00 98 1010.2
20260904061528 73 67 0.0 0.0 0.00 0.13 0.00 98 1010.4
20260904060013 73 67 0.0 0.0 0.00 0.13 0.00 99 1010.6
20260904054515 73 67 0.0 0.0 0.00 0.13 0.00 99 1010.8
20260904053011 72 67 0.0 0.0 0.00 0.13 0.00 99 1011.1
20260904051507 73 67 0.0 0.0 0.00 0.13 0.00 99 1011.5
20260904050004 73 67 0.0 0.0 0.00 0.13 0.00 99 1011.3
20260904044507 73 67 0.0 0.0 0.00 0.13 0.13 99 1011.1
20260904043007 73 67 0.0 0.0 0.00 0.13 0.13 99 1011.1
20260904041507 72 67 0.0 0.0 0.00 0.13 0.13 99 1011.3
20260904040003 72 63 0.0 1.0 0.00 0.13 0.13 99 1011.4
20260904034501 72 63 0.0 1.0 0.00 0.13 0.13 98 1011.5
20260904033001 71 55 0.0 4.0 0.00 0.13 0.13 98 1011.9
20260904031604 72 96 0.0 1.0 0.00 0.13 0.13 98 1011.8
20260904030100 73 205 0.0 0.0 0.00 0.13 0.13 98 1011.8
20260904024606 73 205 0.0 0.0 0.00 0.13 0.13 98 1011.8
20260904023105 73 205 0.0 0.0 0.00 0.13 0.13 98 1011.8
20260904021559 73 205 0.0 0.0 0.00 0.13 0.13 98 1011.5
20260904020057 72 205 0.0 1.0 0.00 0.13 0.13 97 1011.5
20260904014559 73 219 0.0 0.0 0.00 0.13 0.13 96 1011.3
20260904013121 73 219 0.0 0.0 0.00 0.13 0.13 97 1011.1
20260904011555 73 219 0.0 0.0 0.00 0.13 0.13 97 1011.1
20260904010055 73 219 0.0 0.0 0.00 0.13 0.13 96 1010.8
20260904004554 73 219 0.0 2.0 0.00 0.13 0.13 96 1010.4
20260904003053 73 228 2.0 5.0 0.00 0.13 0.13 96 1010.1
20260904001606 73 222 1.0 5.0 0.00 0.13 0.13 95 1010.1
20260904000053 74 225 1.0 5.0 0.00 0.13 0.13 94 1010.0
20260903234551 74 216 1.0 4.0 0.00 0.13 0.13 94 1010.0
20260903233050 74 147 0.0 3.0 0.00 0.13 0.13 94 1010.4
20260903231601 74 126 0.0 4.0 0.00 0.13 0.13 94 1010.5
20260903230049 74 126 0.0 3.0 0.00 0.13 0.13 94 1010.4
20260903224550 74 105 3.0 6.0 0.00 0.13 0.13 92 1010.7
20260903223049 76 205 6.0 11.0 0.00 0.13 0.13 86 1010.4
20260903221547 78 205 6.0 11.0 0.00 0.13 0.13 77 1010.5
20260903220047 78 211 6.0 10.0 0.00 0.13 0.13 77 1010.4
20260903214545 77 202 4.0 8.0 0.00 0.13 0.13 80 1010.4
20260903213051 76 220 2.0 7.0 0.00 0.13 0.13 84 1010.4
20260903211545 76 234 4.0 7.0 0.00 0.13 0.13 87 1010.4
20260903210046 76 232 4.0 7.0 0.00 0.13 0.13 86 1010.6
20260903204545 76 219 3.0 7.0 0.00 0.13 0.13 85 1010.8
20260903203052 76 221 2.0 7.0 0.01 0.13 0.13 86 1010.8
20260903201544 76 228 1.0 8.0 0.01 0.13 0.13 86 1010.8
20260903200043 76 224 3.0 5.0 0.01 0.13 0.13 87 1011.0
20260903194542 74 59 0.0 4.0 0.01 0.13 0.13 91 1011.4
20260903193042 74 75 1.0 4.0 0.00 0.12 0.12 89 1011.4
20260903191544 74 226 1.0 6.0 0.00 0.12 0.12 88 1011.1
20260903190041 74 225 4.0 8.0 0.00 0.12 0.12 87 1011.0
20260903184540 73 238 3.0 6.0 0.00 0.12 0.12 89 1011.1
20260903183039 74 229 3.0 5.0 0.00 0.12 0.12 90 1011.3
20260903181539 73 222 3.0 6.0 0.00 0.12 0.12 92 1011.5
20260903180039 74 223 3.0 5.0 0.00 0.12 0.12 90 1011.8
20260903174538 73 65 0.0 0.0 0.00 0.12 0.12 93 1012.0
20260903173038 71 65 0.0 0.0 0.00 0.12 0.12 95 1012.2
20260903171544 71 65 0.0 1.0 0.10 0.12 0.12 94 1012.6
20260903170039 72 68 0.0 7.0 0.12 0.12 0.12 94 1013.0
20260903164532 72 5 2.0 11.0 0.12 0.12 0.12 93 1012.9
20260903163028 74 360 9.0 19.0 0.12 0.12 0.12 88 1013.1
20260903161527 79 46 2.0 6.0 0.01 0.01 0.01 82 1013.3
20260903160022 80 83 1.0 6.0 0.00 0.00 0.00 82 1012.7
20260903154519 81 36 1.0 4.0 0.00 0.00 0.00 80 1012.0
20260903153018 82 65 0.0 10.0 0.00 0.00 0.00 79 1011.8
20260903151516 81 51 1.0 9.0 0.00 0.00 0.00 80 1011.7
20260903150017 81 40 7.0 15.0 0.00 0.00 0.00 73 1011.5
20260903144515 85 346 1.0 3.0 0.00 0.00 0.00 75 1010.9
20260903143012 86 256 0.0 3.0 0.00 0.00 0.00 73 1011.0
20260903141511 86 218 0.0 2.0 0.00 0.00 0.00 73 1010.9
20260903140015 86 266 1.0 8.0 0.00 0.00 0.00 72 1010.6
20260903134508 85 173 0.0 4.0 0.00 0.00 0.00 74 1010.4
20260903133002 84 212 1.0 5.0 0.00 0.00 0.00 75 1010.3
20260903131558 83 172 0.0 3.0 0.00 0.00 0.00 78 1010.2
20260903130105 82 313 1.0 6.0 0.00 0.00 0.00 80 1010.3
20260903124556 81 170 0.0 3.0 0.00 0.00 0.00 82 1010.3
20260903123050 80 227 0.0 5.0 0.00 0.00 0.00 84 1010.5
20260903121552 78 221 1.0 5.0 0.00 0.00 0.00 87 1010.5
20260903120110 78 193 0.0 4.0 0.00 0.00 0.00 88 1010.5
20260903114559 78 209 0.0 2.0 0.00 0.00 0.00 88 1010.6
20260903113045 78 203 0.0 2.0 0.00 0.00 0.00 89 1010.6
20260903111544 78 198 0.0 3.0 0.00 0.00 0.00 89 1010.5
20260903110047 78 217 0.0 3.0 0.00 0.00 0.00 89 1010.5
20260903104544 78 228 0.0 0.0 0.00 0.00 0.00 89 1010.4
20260903103042 78 232 0.0 4.0 0.00 0.00 0.00 89 1010.3
20260903101543 77 224 0.0 1.0 0.00 0.00 0.00 91 1010.3
20260903100046 78 224 0.0 1.0 0.00 0.00 0.00 91 1010.5
20260903094543 78 198 0.0 0.0 0.00 0.00 0.00 91 1010.5